Troy, AL

12:32 PM CDT on October 18, 2017 (GMT -0500)
Troy Municipal

Weather History for KTOI - November, 2012

Change the Weather History Date:

Sunday, November 11, 2012

  Actual Average Record
Temperature  
Mean Temperature 57 °F 57 °F  
Max Temperature 76 °F 71 °F 79 °F (2010)
Min Temperature 37 °F 44 °F 27 °F (2011)
Degree Days  
Heating Degree Days 8 8  
Month to date heating degree days 101 81  
Since 1 July heating degree days 192 179  
Growing Degree Days 6 (Base 50)    
Moisture  
Dew Point 47 °F    
Average Humidity 65    
Maximum Humidity 92    
Minimum Humidity 38    
Precipitation  
Precipitation 0.00 in 0.14 in 1.94 in (2002)
Month to date precipitation 0.23 1.36  
Year to date precipitation 50.26 46.50  
Snow  
Snow 0.00 in - - ()
Month to date snowfall 0.0  
Since 1 July snowfall 0.0  
Since 1 September snowfall 0.0  
Snow Depth 0.00 in    
Sea Level Pressure  
Sea Level Pressure 30.28 in    
Wind  
Wind Speed 5 mph (SE)    
Max Wind Speed 17 mph    
Max Gust Speed 24 mph    
Visibility 10 miles    
Events      
T = Trace of Precipitation, MM = Missing Value Source: NWS Daily Summary

Daily Weather History Graph

Daily Weather History Graph

Search for Another Location

Airport or City:

Trip Planner

Search our weather history database for the weather conditions in past years. The results will help you decide how hot, cold, wet, or windy it might be!

Date:

Astronomy

Nov. 11, 2012 Rise Set
Actual Time 6:09 AM CST 4:46 PM CST
Civil Twilight 5:43 AM CST 5:12 PM CST
Nautical Twilight 5:14 AM CST 5:41 PM CST
Astronomical Twilight 4:45 AM CST 6:10 PM CST
Moon 3:30 AM CST (11/11) 3:03 PM CST (11/11)
Length of Visible Light 11h 28m
Length of Day
10h 37m
Waning Crescent, 7% of the Moon is Illuminated
Nov 11
Waning Crescent
Nov 13
New
Nov 20
First Quarter
Nov 28
Full
Dec 6
Last Quarter

Hourly Weather History & Observations

Time (CST) Temp. Dew Point Humidity Pressure Visibility Wind Dir Wind Speed Gust Speed Precip Events Conditions
12:53 AM 41.0 °F 37.9 °F 89% 30.29 in 10.0 mi Calm Calm - N/A   Clear
1:53 AM 37.9 °F 36.0 °F 93% 30.29 in 10.0 mi Calm Calm - N/A   Clear
2:53 AM 37.9 °F 36.0 °F 93% 30.27 in 10.0 mi Calm Calm - N/A   Clear
3:53 AM 41.0 °F 36.0 °F 82% 30.28 in 10.0 mi Calm Calm - N/A   Clear
4:53 AM 43.0 °F 37.0 °F 80% 30.29 in 10.0 mi Calm Calm - N/A   Clear
5:53 AM 39.0 °F 36.0 °F 89% 30.32 in 10.0 mi Calm Calm - N/A   Clear
6:53 AM 46.9 °F 43.0 °F 86% 30.32 in 10.0 mi Variable 3.5 mph - N/A   Clear
7:53 AM 57.0 °F 50.0 °F 77% 30.34 in 10.0 mi ESE 8.1 mph - N/A   Clear
8:53 AM 64.0 °F 51.1 °F 63% 30.36 in 10.0 mi SE 8.1 mph - N/A   Clear
9:53 AM 70.0 °F 52.0 °F 53% 30.36 in 10.0 mi SE 12.7 mph 16.1 mph N/A   Clear
10:53 AM 71.1 °F 48.9 °F 45% 30.33 in 10.0 mi SSE 16.1 mph 20.7 mph N/A   Partly Cloudy
11:53 AM 73.0 °F 50.0 °F 44% 30.30 in 10.0 mi South 15.0 mph 21.9 mph N/A   Scattered Clouds
12:53 PM 75.0 °F 48.9 °F 40% 30.27 in 10.0 mi South 15.0 mph 20.7 mph N/A   Scattered Clouds
1:53 PM 73.0 °F 48.9 °F 42% 30.26 in 10.0 mi SE 9.2 mph 18.4 mph N/A   Mostly Cloudy
2:53 PM 73.9 °F 48.9 °F 41% 30.26 in 10.0 mi SSE 12.7 mph 17.3 mph N/A   Mostly Cloudy
3:53 PM 72.0 °F 50.0 °F 46% 30.25 in 10.0 mi SE 11.5 mph 18.4 mph N/A   Scattered Clouds
4:53 PM 66.9 °F 51.1 °F 57% 30.24 in 10.0 mi SSE 4.6 mph - N/A   Scattered Clouds
5:53 PM 63.0 °F 52.0 °F 67% 30.25 in 10.0 mi Calm Calm - N/A   Clear
6:53 PM 57.0 °F 51.1 °F 81% 30.26 in 10.0 mi Calm Calm - N/A   Clear
7:53 PM 61.0 °F 51.1 °F 70% 30.26 in 10.0 mi SE 4.6 mph - N/A   Clear
8:53 PM 55.9 °F 50.0 °F 80% 30.26 in 10.0 mi Calm Calm - N/A   Clear
9:53 PM 54.0 °F 48.9 °F 83% 30.26 in 10.0 mi Calm Calm - N/A   Clear
10:53 PM 55.0 °F 51.1 °F 86% 30.27 in 10.0 mi Calm Calm - N/A   Overcast
11:53 PM 55.9 °F 51.1 °F 84% 30.25 in 10.0 mi ESE 3.5 mph - N/A   Scattered Clouds